Regional Weather Roundup
Issued by NWS

Home | Current Version | Previous Version | Text Only | Print | Product List | Glossary On
Versions: 1 2 3 4 5 6 7 8 9 10 11 12 13 14 15 16 17 18 19 20 21 22 23 24 25 26 27 28 29 30 31 32 33 34 35 36 37 38 39 40 41 42 43 44 45 46 47 48 49 50
000
ASUS43 KBIS 010820
RWRND

NORTH DAKOTA REGIONAL WEATHER ROUNDUP
NATIONAL WEATHER SERVICE BISMARCK ND
300 AM CDT FRI AUG 01 2014

NOTE: "FAIR" INDICATES FEW OR NO CLOUDS BELOW 12,000 FEET WITH NO
SIGNIFICANT WEATHER AND/OR OBSTRUCTIONS TO VISIBILITY.


NDZ001>003-009>011-017-010900-
NORTHWEST NORTH DAKOTA

CITY           SKY/WX    TMP DP  RH WIND       PRES   REMARKS
WILLISTON      CLEAR     66  58  75 CALM      30.04F
MINOT          CLEAR     60  56  86 SW5       30.06R
MINOT AFB      CLEAR     56  56  99 NW3       30.06R
$$

NDZ018>021-031>035-040>046-010900-
SOUTHWEST NORTH DAKOTA

CITY           SKY/WX    TMP DP  RH WIND       PRES   REMARKS
BISMARCK       MOCLDY    62  57  83 NE8       30.06S
DICKINSON      CLEAR     58  54  86 E8        30.05S
GARRISON         N/A     59  55  87 CALM      30.06S
HETTINGER ARPT CLEAR     59  53  80 E8        30.07S
$$

NDZ004>008-012>016-024-026-027-054-010900-
NORTHEAST NORTH DAKOTA

CITY           SKY/WX    TMP DP  RH WIND       PRES   REMARKS
GRAND FORKS    PTCLDY    60  59  96 CALM      30.02R
GRND FRKS AFB  PTCLDY    62  62 100 W5        30.03S
DEVILS LAKE    CLEAR     63  57  82 E5        30.05R
$$

NDZ022-023-025-028>030-036>039-047>053-010900-
SOUTHEAST NORTH DAKOTA

CITY           SKY/WX    TMP DP  RH WIND       PRES   REMARKS
FARGO          CLEAR     62  59  90 CALM      30.01S
JAMESTOWN      CLEAR     62  58  86 CALM      30.05F
$$




USA.gov is the U.S. government's official web portal to all federal, state and local government web resources and services.